Location: Huesca
(42.1318°N, 0.4078°W)
Time: 10:47:06
(UTC+02:00)

Courier 1B Rocket - All Passes

Search period start: 15 July 2024 00:00
Search period end: 25 July 2024 00:00
Orbit: 920 x 1201 km, 28.2° (Epoch: 14 July)

Date Brightness Start Highest point End Pass type
(mag) Time Alt. Az. Time Alt. Az. Time Alt. Az.
15 Jul - 18:43:55 10° SSW 18:49:08 20° SSE 18:54:11 10° ESE daylight
15 Jul - 20:35:57 10° SW 20:41:50 26° S 20:47:23 10° SE daylight
15 Jul - 22:29:26 10° WSW 22:34:24 21° SSW 22:39:08 10° SSE visible
16 Jul - 17:43:32 10° SSW 17:48:09 17° SSE 17:52:38 10° ESE daylight
16 Jul - 19:34:52 10° SW 19:40:49 26° S 19:46:30 10° ESE daylight
16 Jul - 21:27:54 10° WSW 21:33:29 24° S 21:38:47 10° SE daylight
16 Jul - 23:22:54 10° SW 23:25:51 13° SSW 23:28:45 10° S visible
17 Jul - 16:43:47 10° S 16:47:10 13° SSE 16:50:31 10° SE daylight
17 Jul - 18:33:55 10° SW 18:39:47 24° S 18:45:25 10° ESE daylight
17 Jul - 20:26:32 10° WSW 20:32:31 26° S 20:38:11 10° SE daylight
17 Jul - 22:20:35 10° WSW 22:25:02 17° SSW 22:29:18 10° SSE visible
18 Jul - 17:33:13 10° SSW 17:38:44 21° SSE 17:44:07 10° ESE daylight
18 Jul - 19:25:17 10° SW 19:31:29 27° S 19:37:24 10° SE daylight
18 Jul - 21:18:48 10° WSW 21:24:08 22° SSW 21:29:14 10° SSE daylight
19 Jul - 16:32:51 10° SSW 16:37:42 18° SSE 16:42:30 10° ESE daylight
19 Jul - 18:24:11 10° SW 18:30:25 27° S 18:36:26 10° ESE daylight
19 Jul - 20:17:15 10° WSW 20:23:10 25° S 20:28:48 10° SE daylight
19 Jul - 22:12:10 10° SW 22:15:37 14° SSW 22:18:58 10° S visible
20 Jul - 15:33:06 10° S 15:36:42 14° SSE 15:40:19 10° SE daylight
20 Jul - 17:23:16 10° SW 17:29:20 25° S 17:35:16 10° ESE daylight
20 Jul - 19:15:52 10° WSW 19:22:08 27° S 19:28:08 10° SE daylight
20 Jul - 21:09:54 10° WSW 21:14:44 18° SSW 21:19:23 10° SSE daylight
21 Jul - 16:22:36 10° SSW 16:28:16 22° SSE 16:33:53 10° ESE daylight
21 Jul - 18:14:39 10° SW 18:21:03 28° S 18:27:16 10° SE daylight
21 Jul - 20:08:08 10° WSW 20:13:47 23° SSW 20:19:13 10° SSE daylight
21 Jul - 22:05:31 10° SSW 22:06:08 10° SSW 22:06:46 10° SSW visible
22 Jul - 15:22:18 10° SSW 15:27:14 18° SSE 15:32:10 10° ESE daylight
22 Jul - 17:13:35 10° SW 17:19:57 27° S 17:26:12 10° ESE daylight
22 Jul - 19:06:36 10° WSW 19:12:45 26° S 19:18:42 10° SE daylight
22 Jul - 21:01:25 10° SW 21:05:17 15° SSW 21:09:03 10° S daylight
23 Jul - 14:22:38 10° S 14:26:15 14° SSE 14:29:53 10° SE daylight
23 Jul - 16:12:44 10° SW 16:18:50 25° S 16:24:56 10° ESE daylight
23 Jul - 18:05:16 10° WSW 18:11:40 28° S 18:17:56 10° SE daylight
23 Jul - 19:59:14 10° WSW 20:04:21 19° SSW 20:09:19 10° SSE daylight
24 Jul - 15:12:09 10° SSW 15:17:46 22° SSE 15:23:27 10° ESE daylight
24 Jul - 17:04:06 10° SW 17:10:34 29° S 17:16:57 10° ESE daylight
24 Jul - 18:57:30 10° WSW 19:03:20 23° SSW 19:09:03 10° SE daylight
24 Jul - 20:54:08 10° SW 20:55:47 11° SSW 20:57:26 10° SSW daylight
